Printer-friendly version

IAU Minor Planet Center

Minor Planet Center

MPEC 2001-S73: 2001 SE286

The following Minor Planet Electronic Circular may be linked-to from your own Web pages, but must not otherwise be redistributed electronically.


Read MPEC 2001-S72 Read MPEC 2001-S74


M.P.E.C. 2001-S73                                Issued 2001 Sept. 29, 18:58 UT

     The Minor Planet Electronic Circulars contain information on unusual
         minor planets and routine data on comets.  They are published
   on behalf of Commission 20 of the International Astronomical Union by the
          Minor Planet Center, Smithsonian Astrophysical Observatory,
                          Cambridge, MA 02138, U.S.A.

             Prepared using the Tamkin Foundation Computer Network

                              MPC@CFA.HARVARD.EDU
          URL http://cfa-www.harvard.edu/iau/mpc.html  ISSN 1523-6714

                                  2001 SE286

Observations:
     K01SS6E* C2001 09 27.40074 03 39 43.37 +65 01 43.7          18.5        704
     K01SS6E  C2001 09 27.41555 03 39 45.90 +65 01 58.7          18.9        704
     K01SS6E  C2001 09 27.43034 03 39 48.61 +65 02 14.1          19.5        704
     K01SS6E  C2001 09 27.44517 03 39 51.25 +65 02 29.6          19.4        704
     K01SS6E  C2001 09 27.46007 03 39 53.96 +65 02 45.2          19.3        704
     K01SS6E  C2001 09 28.29690 03 42 32.49 +65 17 15.4          18.9 R      649
     K01SS6E  C2001 09 28.30693 03 42 34.29 +65 17 25.5          19.0 R      649
     K01SS6E  C2001 09 28.31012 03 42 34.87 +65 17 29.1          18.9 R      649
     K01SS6E  C2001 09 28.39615 03 42 50.77 +65 18 59.4          18.8        704
     K01SS6E  C2001 09 28.39966 03 42 51.40 +65 19 03.4          18.9        704
     K01SS6E  C2001 09 28.41145 03 42 53.52 +65 19 15.1          19.0        704
     K01SS6E  C2001 09 28.41466 03 42 54.10 +65 19 19.8          19.0        704
     K01SS6E  C2001 09 28.42648 03 42 56.30 +65 19 30.9          19.1        704
     K01SS6E  C2001 09 28.42952 03 42 56.85 +65 19 35.5          19.6        704
     K01SS6E  C2001 09 28.44162 03 42 58.97 +65 19 46.2          19.1        704
     K01SS6E  C2001 09 28.44482 03 42 59.58 +65 19 51.0          19.4        704
     K01SS6E  C2001 09 28.45665 03 43 01.74 +65 20 01.3          19.1        704
     K01SS6E  C2001 09 28.46100 03 43 02.47 +65 20 07.0          19.2        704
     K01SS6E  C2001 09 28.46435 03 43 03.11 +65 20 10.6          19.3 R      711
     K01SS6E  C2001 09 28.47053 03 43 04.22 +65 20 17.1          19.6 R      711
     K01SS6E  C2001 09 28.47682 03 43 05.37 +65 20 23.5          19.4 R      711
     K01SS6E  C2001 09 28.97366 03 44 41.26 +65 28 50.2          17.9 R      046
     K01SS6E  C2001 09 28.97595 03 44 41.59 +65 28 52.9                      046
     K01SS6E  C2001 09 28.97733 03 44 41.87 +65 28 54.7                      046
     K01SS6E  C2001 09 28.97917 03 44 42.29 +65 28 56.4                      046
     K01SS6E  C2001 09 28.98111 03 44 42.60 +65 28 58.6          17.8 R      046
     K01SS6E  C2001 09 29.09248 03 45 03.25 +65 30 53.2                      557
     K01SS6E  C2001 09 29.09434 03 45 03.54 +65 30 54.9                      557
     K01SS6E  C2001 09 29.09620 03 45 03.85 +65 30 57.0                      557
     K01SS6E  C2001 09 29.09993 03 45 04.51 +65 31 00.9                      557
     K01SS6E  C2001 09 29.28181 03 45 40.34 +65 34 06.6          18.9 R      649
     K01SS6E  C2001 09 29.28981 03 45 41.81 +65 34 15.0          18.8 R      649
     K01SS6E  C2001 09 29.30831 03 45 45.29 +65 34 34.1          19.2 R      649
     K01SS6E  C2001 09 29.40519 03 46 03.31 +65 36 15.3          19.2 R      711
     K01SS6E  C2001 09 29.41290 03 46 04.78 +65 36 22.8          19.1 R      711
     K01SS6E  C2001 09 29.42045 03 46 06.15 +65 36 31.3          19.1 R      711

Observer details:
046 Klet.  Observers J. Ticha, M. Tichy.  0.57-m f/5.2 reflector + CCD.
557 Ondrejov.  Observer L. Sarounova.  0.65-m f/3.6 reflector + CCD.
649 Powell Observatory, Louisburg.  Observers K. Smalley, R. Fredrick,
    J. Wright.  0.75-m Newtonian + CCD.
704 Lincoln Laboratory ETS, New Mexico.  Observers M. Blythe, F. Shelly,
    M. Bezpalko, R. Huber, L. Manguso, S. Adams, J. Piscitelli.  Measurers
    J. Stuart, R. Sayer, J. B. Evans, H. Viggh.  1.0-m f/2.15 reflector + CCD.
711 McDonald Observatory.  Observer J. G. Ries.  0.76-m reflector + CCD.

Orbital elements:
2001 SE286
Epoch 2001 Sept. 28.0 TT = JDT 2452180.5                Spahr
M 325.86482              (2000.0)            P               Q
n   0.34149953     Peri.  201.59318     -0.29005086     -0.84209595
a   2.0271037      Node   267.69564     +0.93110760     -0.13852026
e   0.4647403      Incl.   27.06880     +0.22115410     -0.52123561
P   2.89           H   16.7           G   0.15
From 36 observations 2001 Sept. 27-29.

Ephemeris:
2001 SE286               a,e,i = 2.03, 0.46, 27                  q = 1.0850
Date    TT    R. A. (2000) Decl.     Delta      r     Elong.  Phase     V
2001 09 18    03 12.30   +62 06.7    0.974    1.567   104.7    38.3    19.2
2001 09 28    03 41.59   +65 12.1    0.864    1.504   107.2    39.5    18.8
2001 10 08    04 15.45   +67 49.8    0.758    1.442   109.5    40.8    18.5
2001 10 18    04 54.34   +69 46.3    0.655    1.381   111.8    42.1    18.1
2001 10 28    05 37.2    +70 42.1    0.554    1.322   114.3    43.2    17.7
2001 11 07    06 20.4    +70 11.1    0.456    1.267   117.3    44.0    17.2
2001 11 17    06 57.67   +67 31.9    0.360    1.216   121.5    43.9    16.6
2001 11 27    07 23.37   +61 14.3    0.269    1.172   128.0    41.6    15.8
2001 12 07    07 35.95   +47 29.1    0.189    1.135   139.3    34.4    14.8
2001 12 17    07 37.17   +18 31.2    0.138    1.108   151.9    24.7    13.8
2001 12 27    07 31.37   -19 27.7    0.147    1.091   134.1    40.4    14.3
2002 01 06    07 23.03   -42 25.8    0.204    1.085   114.9    55.3    15.4
2002 01 16    07 15.23   -52 55.2    0.275    1.091   105.7    60.3    16.2
2002 01 26    07 10.46   -57 43.4    0.348    1.108   101.6    60.5    16.8
2002 02 05    07 10.06   -59 45.4    0.416    1.136   100.2    58.7    17.2
2002 02 15    07 14.70   -60 09.4    0.478    1.172   100.4    56.0    17.5
2002 02 25    07 24.80   -59 26.7    0.533    1.217   101.9    52.8    17.7
2002 03 07    07 39.94   -57 53.6    0.583    1.267   104.1    49.4    17.9
2002 03 17    07 59.36   -55 37.9    0.630    1.323   106.8    46.1    18.1
2002 03 27    08 22.13   -52 47.6    0.678    1.381   109.6    42.9    18.2
2002 04 06    08 47.01   -49 31.1    0.728    1.442   112.1    40.0    18.4
2002 04 16    09 13.01   -45 58.0    0.785    1.505   114.0    37.5    18.6
2002 04 26    09 39.31   -42 21.0    0.852    1.568   114.8    35.6    18.8
2002 05 06    10 05.25   -38 52.1    0.930    1.631   114.5    34.2    19.0
2002 05 16    10 30.49   -35 40.7    1.022    1.694   112.9    33.3    19.3
2002 05 26    10 54.87   -32 54.0    1.127    1.757   110.3    32.7    19.6
2002 06 05    11 18.30   -30 34.8    1.245    1.818   106.8    32.3    19.8
2002 06 15    11 40.85   -28 43.0    1.374    1.879   102.6    31.8    20.1
2002 06 25    12 02.60   -27 17.1    1.513    1.938    98.1    31.3    20.4
2002 07 05    12 23.62   -26 13.8    1.661    1.996    93.2    30.6    20.6
2002 07 15    12 44.04   -25 29.8    1.815    2.052    88.2    29.7    20.8
2002 07 25    13 03.98   -25 01.9    1.974    2.107    83.0    28.6    21.1
2002 08 04    13 23.50   -24 46.7    2.136    2.160    77.7    27.3    21.2
2002 08 14    13 42.71   -24 41.3    2.298    2.211    72.2    25.9    21.4
2002 08 24    14 01.67   -24 43.4    2.459    2.261    66.8    24.3    21.6
2002 09 03    14 20.44   -24 50.6    2.618    2.309    61.2    22.5    21.7
2002 09 13    14 39.07   -25 01.0    2.772    2.355    55.6    20.7    21.8

Timothy B. Spahr             (C) Copyright 2001 MPC           M.P.E.C. 2001-S73

Read MPEC 2001-S72 Read MPEC 2001-S74


Our Web policy. Index to the CBAT/MPC/ICQ pages.


Valid HTML 4.01!